Meath Environmental Platform

Observations for Trim Patrick St

Time AQI Temp °C Hum % Pres Pa CO μg/m³ H₂S μg/m³ NO μg/m³ NO₂ μg/m³ O₃ μg/m³ SO₂ μg/m³ PM1 μg/m³ PM2.5 μg/m³ PM10 μg/m³
Saturday 8 August 2026
23:45 2 19.6 63 75,243 0 2.59 1.95 21.33 57 0.19 3.71 7.04 7.74
23:44 2 19.6 63 75,230 0 2.33 2.09 12.87 42.05 0.74 2 6.35 6.98
23:43 2 19.7 61 75,216 0 1.75 2.02 18.15 40.99 0.35 2.86 7.94 8.73
23:42 2 19.6 63 75,200 0 0.91 1.84 12.66 38.08 0.8 3.71 7.83 8.61
23:41 2 19.7 62 75,198 0 2.41 1.93 14.62 45.49 0.52 2 6.36 7
23:40 2 19.7 63 75,190 0 2.35 1.74 14.86 48.99 0.33 2 6.34 6.97
23:39 2 19.7 63 75,190 0 2.04 2.14 14.28 43.28 0.54 2.86 6.33 6.96
23:36 2 19.7 62 75,239 0 1.49 1.94 16.43 42.34 0.11 2 6.39 7.03
23:35 2 19.8 62 75,263 0 1.25 1.85 12.56 41.38 0.94 2 5.68 6.24
23:31 2 19.8 62 75,377 0 2.93 1.69 17.29 45.84 0.4 2 6.41 7.05
23:30 2 19.8 62 75,422 0 2.3 1.68 14.22 37.73 1.33 2.86 7.17 7.88
23:29 2 19.8 62 75,458 0 2.27 1.63 17.62 42.48 1.08 2 6.4 7.04
23:28 2 19.8 62 75,485 0 2.85 1.92 13.28 42.71 1.62 3.71 7.13 7.84
23:27 2 19.9 60 75,515 0 3.35 2.07 16.89 34.31 1.1 2 6.52 7.17
23:26 2 19.9 61 75,544 0 2.61 1.63 20.42 41.8 0.77 2.86 7.93 8.73
23:25 2 19.9 62 75,589 0 2.37 1.39 13.6 36.53 1.06 2.86 7.15 7.86
23:24 2 19.9 62 75,646 0 3.03 1.63 16.36 41.22 1 3.71 7.84 8.62
23:23 2 19.9 63 75,701 0 3.93 1.37 21.1 39.75 1.59 3.71 7.83 8.61
23:22 2 19.9 63 75,747 0 5.21 1.59 19.43 46.31 1.67 2.86 6.34 6.98
23:21 2 19.9 64 75,770 0 5.71 1.77 21.13 40.27 1.19 2.86 7.77 8.54